This demonstration page uses our WeatherBlox Daily Observations layout. Learn more.

Left ArrowRight Arrow

39.01783, -85.05884

Hourly Observations for June 22, 2018

Temp ( °F °C ) Dew Point ( °F °C ) Humidity (%) Winds ( mph kmh ) Pressure ( in mb ) Visibility ( mi km ) Precip ( " mm )
12:52 am 00:52 Mostly Cloudy 71 21.7 68 20 90 90 N N/A 29.71 1006 10 16 N/A
12:59 am 00:59 Mostly Cloudy 71 21.7 68 20 90 90 N N/A 29.71 1006 10 16 N/A
1:42 am 01:42 Partly Cloudy 70 21.1 68 20 93 93 N N/A 29.68 1005 10 16 N/A
1:52 am 01:52 Mostly Cloudy 71 21.7 68 20 90 90 N N/A 29.68 1005 10 16 N/A
2:01 am 02:01 Mostly Cloudy 71 21.7 68 20 90 90 SSE 3 6 29.68 1005 10 16 N/A
2:27 am 02:27 Cloudy 71 21.7 69 20.6 94 94 NW 7 11 29.68 1005 10 16 N/A
2:34 am 02:34 Cloudy 72 22.2 68 20 87 87 VRB 7 11 29.68 1005 10 16 N/A
2:42 am 02:42 Cloudy with Light Rain 72 22.2 69 20.6 91 91 S 3 6 29.68 1005 10 16 N/A
2:52 am 02:52 Cloudy 71 21.7 69 20.6 94 94 S 3 6 29.68 1005 10 16 N/A
3:22 am 03:22 Cloudy 71 21.7 68 20 90 90 SSW 6 9 29.68 1005 9 14 N/A
3:37 am 03:37 Cloudy with Thunderstorms 71 21.7 69 20.6 94 94 SSW 8 13 29.68 1005 5 8 0.11 2.79
3:52 am 03:52 Cloudy with Thunderstorms 71 21.7 68 20 90 90 N N/A 29.68 1005 5 8 0.23 5.84
4:11 am 04:11 Cloudy 70 21.1 67 19.4 90 90 VRB 5 7 29.68 1005 10 16 N/A
4:52 am 04:52 Partly Cloudy 68 20 68 20 100 100 N N/A 29.67 1005 9 14 N/A
5:52 am 05:52 Partly Cloudy 68 20 67 19.4 96 96 SSW 5 7 29.68 1005 10 16 N/A
6:04 am 06:04 Mostly Cloudy with Mist and Fog 68 20 68 20 100 100 S 5 7 29.68 1005 1 2 N/A
6:52 am 06:52 Cloudy with Mist and Fog 69 20.6 69 20.6 100 100 S 7 11 29.69 1005 1 2 N/A
7:16 am 07:16 Mostly Cloudy with Fog 69 20.6 68 20 96 96 SSW 5 7 29.71 1006 1 1 N/A
7:52 am 07:52 Mostly Cloudy with Fog 69 20.6 68 20 96 96 S 7 11 29.70 1006 0 0 N/A
8:48 am 08:48 Cloudy with Mist and Fog 72 22 70 21 94 94 SSW 7 11 29.71 1006 4 6 N/A
8:52 am 08:52 Cloudy with Mist and Fog 71 21.7 69 20.6 94 94 S 8 13 29.71 1006 5 8 N/A
9:24 am 09:24 Mostly Cloudy 73 22.8 69 20.6 87 87 SSW 9 15 29.71 1006 9 14 N/A
9:52 am 09:52 Cloudy 74 23.3 68 20 82 82 SSW 13 20 29.71 1006 10 16 N/A
10:42 am 10:42 Partly Cloudy 74 23.3 67 19.4 79 79 S 12 19 29.71 1006 10 16 N/A
10:52 am 10:52 Mostly Cloudy 75 23.9 68 20 79 79 SW 10 17 29.71 1006 10 16 N/A
11:09 am 11:09 Mostly Cloudy 74 23.3 67 19.4 79 79 SSW 10 17 29.71 1006 10 16 N/A
11:52 am 11:52 Partly Cloudy 77 25 66 18.9 69 69 SW 7 11 29.71 1006 10 16 N/A
12:52 pm 12:52 Partly Cloudy 79 26.1 64 17.8 60 60 SSW 10 17 29.71 1006 10 16 N/A
1:37 pm 13:37 Cloudy with Nearby Thunderstorms 74 23.3 65 18.3 74 74 SW 12 19 29.71 1006 10 16 N/A
1:52 pm 13:52 Cloudy with Light Rain 72 22.2 65 18.3 79 79 SW 9 15 29.71 1006 7 11 0.01 0.25
2:52 pm 14:52 Mostly Cloudy 78 25.6 64 17.8 62 62 S 13 20 29.68 1005 10 16 N/A
3:52 pm 15:52 Mostly Cloudy 78 25.6 63 17.2 60 60 S 12 19 29.66 1004 10 16 N/A
4:13 pm 16:13 Mostly Cloudy with Thunderstorms 75 23.9 63 17.2 66 66 SSW 9 15 29.62 1003 10 16 N/A
4:46 pm 16:46 Cloudy with Light Rain 68 20 64 18 88 88 WSW 8 13 29.68 1005 10 16 N/A
4:52 pm 16:52 Cloudy with Light Rain 68 20 65 18.3 90 90 WSW 10 17 29.68 1005 9 14 N/A
5:11 pm 17:11 Cloudy with Nearby Thunderstorms 68 20 65 18.3 90 90 SW 5 7 29.65 1004 10 16 0.02 0.51
5:19 pm 17:19 Cloudy with Thunderstorms 68 20 65 18.3 90 90 W 3 6 29.65 1004 10 16 0.02 0.51
5:52 pm 17:52 Cloudy with Thunderstorms 68 20 67 19.4 96 96 SSE 10 17 29.67 1005 5 8 0.05 1.27
6:14 pm 18:14 Cloudy with Nearby Thunderstorms 69 20.6 69 20.6 100 100 N N/A 29.65 1004 3 5 0.04 1.02
6:25 pm 18:25 Mostly Cloudy with Light Rain 70 21.1 69 20.6 97 97 SSW 7 11 29.65 1004 6 10 0.05 1.27
6:52 pm 18:52 Mostly Cloudy 72 22.2 71 21.7 97 97 S 8 13 29.63 1003 10 16 0.05 1.27
7:52 pm 19:52 Mostly Cloudy 72 22.2 66 18.9 82 82 S 8 13 29.65 1004 10 16 N/A
8:52 pm 20:52 Partly Cloudy 69 20.6 66 18.9 90 90 SSW 3 6 29.65 1004 10 16 N/A
9:52 pm 21:52 Mostly Cloudy 68 20 66 18.9 93 93 S 5 7 29.67 1005 10 16 N/A
10:52 pm 22:52 Mostly Cloudy 68 20 66 18.9 93 93 SSW 5 7 29.67 1005 9 14 N/A
11:52 pm 23:52 Mostly Clear 68 20 65 18.3 90 90 S 8 13 29.68 1005 10 16 N/A

Powered by AerisWeather